This is the latest recevied weather packets stored in our database for station/object JR5YHL-13. If no packets are shown the sender has not sent any weather packets the latest 10 day(s).
| Time | Temp. | Humidity | Pressure | Rain* | Wind** | Luminosity | Snow |
|---|---|---|---|---|---|---|---|
| 1777650843 | 11.67° C | 99% | 1009.6 hPa | 0 mm | - | - | - |
| 1777650245 | 11.67° C | 99% | 1009.6 hPa | 0 mm | - | - | - |
| 1777649648 | 11.67° C | 99% | 1009.4 hPa | 0 mm | - | - | - |
| 1777649050 | 11.67° C | 99% | 1009.2 hPa | 0 mm | - | - | - |
| 1777648453 | 12.22° C | 99% | 1009.3 hPa | 0 mm | - | - | - |
| 1777647855 | 12.22° C | 99% | 1009 hPa | 0 mm | - | - | - |
| 1777647257 | 11.67° C | 99% | 1008.9 hPa | 0 mm | - | - | - |
| 1777646660 | 12.22° C | 99% | 1008.8 hPa | 0 mm | - | - | - |
| 1777646062 | 12.22° C | 99% | 1008.6 hPa | 0 mm | - | - | - |
| 1777645464 | 12.78° C | 98% | 1008.4 hPa | 0 mm | - | - | - |
| 1777644866 | 12.78° C | 99% | 1008.2 hPa | 0 mm | - | - | - |
| 1777644269 | 12.78° C | 97% | 1008.2 hPa | 0 mm | - | - | - |
| 1777643671 | 12.78° C | 96% | 1008 hPa | 0 mm | - | - | - |
| 1777643073 | 12.78° C | 92% | 1008.1 hPa | 0 mm | - | - | - |
| 1777642476 | 12.78° C | 90% | 1008.1 hPa | 0 mm | - | - | - |
| 1777641878 | 12.78° C | 88% | 1007.8 hPa | 0 mm | - | - | - |
| 1777641281 | 13.33° C | 85% | 1007.9 hPa | 0 mm | - | - | - |
| 1777640683 | 13.33° C | 84% | 1007.6 hPa | 0 mm | - | - | - |
| 1777640085 | 13.89° C | 84% | 1007.6 hPa | 0 mm | - | - | - |
| 1777639488 | 13.89° C | 83% | 1007.2 hPa | 0 mm | - | - | - |
| 1777638890 | 13.89° C | 80% | 1006.9 hPa | 0 mm | - | - | - |
| 1777638292 | 14.44° C | 76% | 1006.8 hPa | 0 mm | - | - | - |
| 1777637695 | 14.44° C | 74% | 1006.9 hPa | 0 mm | - | - | - |
| 1777637097 | 15° C | 72% | 1006.8 hPa | 0 mm | - | - | - |
| 1777636499 | 15° C | 72% | 1006.8 hPa | 0 mm | - | - | - |
* Rain latest hour (hover to see other rain measurements)
** Current wind speed in m/s (hover to see current wind gust speed)